Location: Newark
(43.4306°N, 0.3089°E)
Time: 12:37:42
(UTC+00:00)

SR - Pass Details

Date: 02 September 2019
Orbit: 576 x 880 km, 66.7° (Epoch: 16 September)

Event Time Altitude Azimuth Distance (km) Brightness Sun altitude
Rises 19:34:25 0° 319° (NW) 3,344 ? -11.5°
Reaches altitude 10° 19:37:01 10° 310° (NW) 2,447 ? -11.9°
Maximum altitude 19:42:00 32° 249° (WSW) 1,434 ? -12.8°
Drops below altitude 10° 19:47:08 10° 188° (S) 2,522 ? -13.6°
Sets 19:49:52 0° 179° (S) 3,461 ? -14.1°
